Fallon NAS, NV

11:29 AM PDT on March 24, 2017 (GMT -0700)
Fallon Naval Air Station

Weather History for KNFL - October, 2012

Change the Weather History Date:

Sunday, October 21, 2012

  Actual Average Record
Temperature  
Mean Temperature 53 °F -  
Max Temperature 69 °F 67 °F 80 °F (1960)
Min Temperature 37 °F 32 °F 17 °F (1996)
Degree Days  
Heating Degree Days 12    
Growing Degree Days 3 (Base 50)    
Moisture  
Dew Point 24 °F    
Average Humidity 36    
Maximum Humidity 70    
Minimum Humidity 14    
Precipitation  
Precipitation 0.00 in - - ()
Sea Level Pressure  
Sea Level Pressure 29.73 in    
Wind  
Wind Speed 4 mph (West)    
Max Wind Speed 23 mph    
Max Gust Speed 31 mph    
Visibility 10 miles    
Events      
Averages and records for this station are not official NWS values.
T = Trace of Precipitation, MM = Missing Value Source: NWS Daily Summary

Daily Weather History Graph

Daily Weather History Graph

Search for Another Location

Airport or City:

Trip Planner

Search our weather history database for the weather conditions in past years. The results will help you decide how hot, cold, wet, or windy it might be!

Date:

Astronomy

Oct. 21, 2012 Rise Set
Actual Time 7:11 AM PDT 6:06 PM PDT
Civil Twilight 6:44 AM PDT 6:33 PM PDT
Nautical Twilight 6:12 AM PDT 7:05 PM PDT
Astronomical Twilight 5:41 AM PDT 7:36 PM PDT
Moon 1:35 PM PDT (10/21) No Moon Set
Length of Visible Light 11h 49m
Length of Day
10h 54m
Waxing Crescent, 46% of the Moon is Illuminated
Oct 21
Waxing Crescent
Oct 21
First Quarter
Oct 29
Full
Nov 6
Last Quarter
Nov 13
New

Hourly Weather History & Observations

Time (PDT) Temp. Windchill Dew Point Humidity Pressure Visibility Wind Dir Wind Speed Gust Speed Precip Events Conditions
12:56 AM 53.1 °F - 28.9 °F 40% 29.75 in 10.0 mi Calm Calm - N/A   Clear
1:56 AM 48.0 °F - 27.0 °F 44% 29.75 in 10.0 mi NE 4.6 mph - N/A   Clear
2:56 AM 43.0 °F - 25.0 °F 49% 29.76 in 10.0 mi Calm Calm - N/A   Clear
3:56 AM 41.0 °F 39.0 °F 26.1 °F 55% 29.75 in 10.0 mi South 3.5 mph - N/A   Clear
4:56 AM 39.0 °F 35.7 °F 27.0 °F 62% 29.75 in 10.0 mi South 4.6 mph - N/A   Clear
5:56 AM 39.0 °F - 30.0 °F 70% 29.75 in 10.0 mi Calm Calm - N/A   Clear
6:56 AM 37.0 °F - 27.0 °F 67% 29.76 in 10.0 mi Calm Calm - N/A   Clear
7:56 AM 37.9 °F - 25.0 °F 60% 29.78 in 10.0 mi Calm Calm - N/A   Clear
8:56 AM 46.9 °F - 30.9 °F 54% 29.78 in 10.0 mi South 4.6 mph - N/A   Clear
9:56 AM 53.1 °F - 30.0 °F 41% 29.77 in 10.0 mi South 3.5 mph - N/A   Clear
10:56 AM 57.9 °F - 27.0 °F 31% 29.76 in 10.0 mi Calm Calm - N/A   Clear
11:04 AM 57.2 °F - 26.6 °F 31% 29.83 in 10.0 mi Calm Calm - N/A   Mostly Cloudy
11:56 AM 62.1 °F - 25.0 °F 24% 29.75 in 10.0 mi Calm Calm - N/A   Mostly Cloudy
12:56 PM 66.9 °F - 21.0 °F 17% 29.73 in 10.0 mi NNE 3.5 mph - N/A   Mostly Cloudy
1:56 PM 69.1 °F - 19.9 °F 15% 29.70 in 10.0 mi West 8.1 mph - N/A   Mostly Cloudy
2:56 PM 68.0 °F - 17.1 °F 14% 29.69 in 10.0 mi West 11.5 mph 20.7 mph N/A   Mostly Cloudy
3:56 PM 66.0 °F - 17.1 °F 15% 29.69 in 10.0 mi WNW 16.1 mph - N/A   Mostly Cloudy
4:56 PM 63.0 °F - 23.0 °F 22% 29.68 in 10.0 mi West 20.7 mph 27.6 mph N/A   Mostly Cloudy
5:56 PM 62.1 °F - 21.9 °F 21% 29.67 in 10.0 mi West 23.0 mph 31.1 mph N/A   Mostly Cloudy
6:56 PM 59.0 °F - 24.1 °F 26% 29.68 in 10.0 mi West 21.9 mph 26.5 mph N/A   Scattered Clouds
7:56 PM 57.9 °F - 21.9 °F 25% 29.70 in 10.0 mi WNW 9.2 mph - N/A   Mostly Cloudy
8:56 PM 54.0 °F - 21.0 °F 28% 29.72 in 10.0 mi Calm Calm - N/A   Clear
9:56 PM 50.0 °F - 19.9 °F 31% 29.73 in 10.0 mi West 9.2 mph - N/A   Clear
10:56 PM 57.0 °F - 21.9 °F 26% 29.71 in 10.0 mi SW 11.5 mph - N/A   Clear
11:56 PM 48.9 °F - 21.0 °F 33% 29.67 in 10.0 mi NNW 9.2 mph - N/A   Clear